Tracking 35030 objects as of 11-Aug-2026
HD Live streaming from Space Station
objects crossing your sky now

STARLINK-3721

Track STARLINK-3721 now!
10-day predictions
STARLINK-3721 is classified as:


NORAD ID: 52134
Int'l Code: 2022-029AY
Launch date: March 19, 2022
Source: United States (US)
Launch site: AIR FORCE EASTERN TEST RANGE (AFETR)
Your satellite tracking list
Your tracking list is empty




NASA's NSSDC Master Catalog

Two Line Element Set (TLE):
1 52134U 22029AY  26223.50003471  .00084145  00000-0  42526-2 0  9998
2 52134  53.1610  93.5486 0000537 238.9996 351.1403 15.16347298  5782
Source of the keplerian elements: AFSPC